Hourly Weather Roundup
Issued by NWS Central Illinois

Home | Current Version | Previous Version | Text Only | Print | Product List | Glossary On
Versions: 1 2 3 4 5 6 7 8 9 10 11 12 13 14 15 16 17 18 19 20 21 22 23 24 25 26 27 28 29 30 31 32 33 34 35 36 37 38 39 40 41 42 43 44 45 46 47 48 49 50
000
NZUS43 KILX 202110
HWRILX

Area Weather Roundup
National Weather Service Lincoln IL
300 PM CST MON NOV 20 2017

NOTE:  "FAIR" indicates few or no clouds below 12,000 feet, with
       no sigificant weather and/or obstructions to visibility.


CITY           SKY/WX    TMP DP  RH WIND       PRES   REMARKS
Bloomington    SUNNY     52  35  52 S22G31    29.84F
Champaign      CLOUDY    51  35  54 S23G29    29.91F
Danville       SUNNY     49  32  51 S21G31    29.90F
Decatur        SUNNY     53  31  42 S22G33    29.90F
Effingham      SUNNY     54  30  40 S14G20    29.99F
Flora          CLOUDY    53  32  44 S13G20    30.01S
Galesburg      SUNNY     57  35  42 S18G29    29.76F
Jacksonville   SUNNY     58  29  33 S13G24    29.84F
Lacon          SUNNY     56  31  38 S17G23    29.77F
Lawrenceville  CLOUDY    50  31  48 S21       30.03F
Litchfield     SUNNY     53  34  49 S21       29.91F
$$


CITY           SKY/WX    TMP DP  RH WIND       PRES   REMARKS
Lincoln        SUNNY     55  36  48 S17G25    29.85F
Macomb         SUNNY     57  32  38 SW22G31   29.79F
Mattoon        CLOUDY    51  31  46 S16G24    29.94F
Mt Carmel AP   SUNNY     51  31  46 S17       30.03F
Olney-Noble AP CLOUDY    53  22  30 S20       30.02S
Paris AP       CLOUDY    49  33  53 S22       29.97F
Peoria         SUNNY     58  31  35 S21G30    29.80F
Pontiac        SUNNY     54  35  48 S21G26    29.84F
Rantoul        SUNNY     53  40  61 S17       29.90F
Robinson       CLOUDY    49  30  47 S15G21    30.02F
Springfield    SUNNY     57  32  38 S17G29    29.86F
Taylorville    SUNNY     52  33  47 S20G30    29.90F
$$

...REGIONAL REPORTS...


CITY           SKY/WX    TMP DP  RH WIND       PRES   REMARKS
Chicago O`Hare PTSUNNY   52  33  48 S22G31    29.76F
Kankakee       SUNNY     52  36  53 S20G25    29.86F
Moline         SUNNY     59  31  34 SW17G31   29.69F
Mount Sterling SUNNY     58  29  33 SW18G28   29.80F
Mount Vernon   SUNNY     52  30  43 S14       30.01F
Pittsfield     SUNNY     60  30  32 SW18G29   29.83F
Quincy         SUNNY     58  31  35 S23G31    29.79F
Rockford       PTSUNNY   54  33  45 SW18G28   29.72F
$$


CITY           SKY/WX    TMP DP  RH WIND       PRES   REMARKS
Burlington     SUNNY     58  34  40 SW23G30   29.73F
Cedar Rapids   SUNNY     60  27  28 SW21G39   29.62F
Des Moines     CLOUDY    61  24  24 SW22G35   29.60F
Kirksville     SUNNY     60  30  32 SW20G31   29.75F
Ottumwa        SUNNY     60  29  30 S22G31    29.67F
St Louis       MOSUNNY   61  25  25 S20G25    29.91F
$$


CITY           SKY/WX    TMP DP  RH WIND       PRES   REMARKS
Terre Haute    CLOUDY    49  28  44 S16       29.99F
Evansville     SUNNY     51  27  39 S13       30.07F
Indianapolis   CLOUDY    49  25  39 S16       29.99F
Lafayette      SUNNY     50  30  46 SW13G21   29.93F
Madison        CLOUDY    50  31  48 S16G28    29.61F
Milwaukee      PTSUNNY   52  32  46 SW22G29   29.67F
$$






USA.gov is the U.S. government's official web portal to all federal, state and local government web resources and services.